リニア彗星

C/2002 V2 ( LINEAR )

English version
Home page
Updated on December 17, 2004

---------------------------------------------------------------------

・ プロフィール

発見日 2002年11月5日
発見光度 18.6等
発見者 Lincoln Laboratory Near-Earth Asteroid Research project

・ 軌道要素

Epoch 2003 May 1.0 TT = JDT 2452760.5
T 2003 May 13.58732 TT                                  MPC
q   6.8121151            (2000.0)            P               Q
z  +0.0001957      Peri.  314.67196     +0.42022343     +0.90396496
 +/-0.0000115      Node    20.23438     +0.88376378     -0.42748846
e   0.9986667      Incl.  166.77617     +0.20584911     -0.01004833

・ 星図

・ 光度変化

        m1 = 6.0 + 5 logΔ + 10.0 log r

---------------------------------------------------------------------

軌道要素はM.P.E.C. 2003-E19に掲載されたものです。
星図は StellaNavigator Ver.2.0 for Windows (アストロアーツ 編著 / アスキー出版局刊) で作成したものです。
光度グラフはComet for Windowsで作成したものです。

---------------------------------------------------------------------

Copyright(C) Seiichi Yoshida (comet@aerith.net). All rights reserved.